Погода в Утяшках

Россия / Республика Татарстан     55°34′14″N   48°21′04″E
темп.,
°C
ветер,
м/с
пор.,
м/с
влажн.,
%
обл.,
%
осадки,
мм/ч
давл.,
гПа
погр.,
м
14 августа, вс
вс1400:00+16ссв2279100 0.0 102128
03:00+14ссв228716 0.0 102229
06:00+16св237954 0.0 1023107
09:00+21всв345389 0.0 1022526
12:00+24всв3443100 0.0 10221224
15:00+25всв34395 0.0 10221720
18:00+23в225552 0.0 102120
21:00+17юв11645 0.0 102211
15 августа, пн
пн1500:00+16ююв116240 0.0 102211
03:00+15ююз116278 0.0 102311
06:00+18юв016034 0.0 102328
09:00+22з11485 0.0 1023517
12:00+25сз224648 0.0 10231300
15:00+26с334929 0.0 10231814
18:00+23ссз336298 0.0 102272
21:00+19св22672 0.0 102320
16 августа, вт
вт1600:00+16св22750 0.0 102420
03:00+15св22780 0.0 102516
06:00+16св23680 0.0 102696
09:00+21всв34520 0.0 1026552
12:00+25всв33410 0.0 10251491
15:00+26всв33361 0.0 10241793
18:00+23в22525 0.0 102324
21:00+18в22625 0.0 102411
17 августа, ср
ср1700:00+16в227134 0.0 102415
03:00+15вюв227437 0.0 102412
06:00+17в24719 0.0 1024104
09:00+23вюв34495 0.0 1024545
12:00+26в34385 0.0 10231566
15:00+26вюв34345 0.0 10221745
18:00+23в2249100 0.0 102117
21:00+18всв225387 0.0 102111
18 августа, чт
чт1800:00+16всв22605 0.0 102112
03:00+15всв22694 0.0 102111
06:00+17всв23692 0.0 102166
09:00+23всв34494 0.0 1021539
12:00+27в44381 0.0 10201583
15:00+28вюв44340 0.0 10191927
18:00+24вюв22505 0.0 101928
21:00+19всв22615 0.0 102016